Showing default

COSMOS 2461 (GLONASS), 36401

Orbit data source: Space-Track

COSMOS 2461 (GLONASS), 36401 is a Commonwealth of Independent States-origin payload satellite in MEO that was launched on Mon, 01 Mar 2010 UTC via a PROTON-M/DM-2 launch vehicle from the Tyuratam Missile And Space Complex (TTMTR). Payload-class satellites include a variety of spacecraft equipped with specific instruments for various scientific and technological missions. These include communications satellites like Starlink; space stations such as the ISS; scientific satellites like the Hubble; Earth observation satellites from companies like Planet Labs, Umbra, and HawkEye 360; GPS; miniature CubeSats for education and research; and military/defense satellites.

Loading next visibility...
Identifier
36401, 2010-007B
Orbit
MEO
Country
Flag of CISCIS
Related business
Manufacturer
Resehetnev ISS
Mission
Non-operational Defense Navigation
Bus & Motor
URAGAN, Unknown motor
Mass
1,450 kg wet, ~1,200 kg dry
Launch date (UTC)
2010-03-01 (16 years ago)
Launch vehicle
PROTON-M/DM-2
Launch site
Tyuratam Missile And Space Complex (TTMTR)
Object type
Payload
Rocket body
Debris
Shape & HBR
Cyl + 1 Ant + 2 Pan, 3.9 m
Radar Cross Section
8.467 m², Large (>1 m²)

Expand to show TLE details & history
Last TLE update: 8 hours ago

TLE from 8 hours ago
0 COSMOS 2461 (GLONASS)
1 36401U 10007B   26034.05523618 -.00000065  00000-0  00000+0 0  9998
2 36401  65.5131 319.0785 0021405 358.2954 134.2635  2.13106709123962
Epoch: 2026-02-03T01:19Z
TLE epoch observation values (Epoch: 2026-02-03T01:19:32.405Z)
Latitude
41.98493°
Longitude
-38.18143°
Altitude
19,172.514 km
Speed
3.948 km/s
True Right ascension
07h 39m 46s
True Declination
41° 56' 14"
Sunlit
Object was in daylight at epoch
Visualization orbit readout
Latitude
Unknown
Longitude
Unknown
Altitude
Unknown
Speed
Unknown
Apparent Right ascension
Unknown
Apparent Declination
Unknown
Sunlit
N/A
Visualization observer readout
Local Sidereal Time
11:21:26
Azimuth
Unknown
Elevation
Unknown
Doppler factor
Unknown
Orbital elements
Apogee altitude
19,183.707 km
Perigee altitude
19,074.511 km
Semi-major axis
25,507.246 km
Eccentricity
0.00214
Inclination
65.5131°
RAAN
319.0785°
Arg. of periapsis
358.2954°
True anomaly
134.43883°
Mean anomaly
134.2635°
Eccentric anomaly
134.3512°
Mean motion
0.53278 °/min
Orbital period
675.7 mins
BSTAR
0
Loading maneuver chart data...
Computing Atmospheric mass density...
Loading historical data...
Loading historical data...
Loading historical data...
Loading historical data...
Loading historical data...
Loading historical data...
Loading historical data...

Documentation

Showing up to 5 results
|